[[{"header":{"parameterUnit":"m.s-1","parameterCategory":1,"la1":30.2991,"la2":30.254,"lo1":-89.0895,"lo2":-89.0444,"dy":0.0017,"dx":0.0017,"nx":28,"ny":28,"refTime":"2025-09-18T03:00:00:Z","depth":0,"parameterNumber":2,"parameterNumberName":"U-component_of_WINDS"},"data":[0,0,0,0,0,0,0,0,0,0,0,0,0,0,0,0,0,0,0,0,0,0,0,0,0,0,0,0,0,0,0,0,0,0,0,0,0,0,0,0,0,0,0,0,0,0,0,0,0,0,0,0,0,0,0,0,0,0,1.0588,1.0589,0,1.0659,1.066,1.0661,1.0702,1.0702,1.0702,1.0702,1.0772,1.0774,1.0776,0,0,0,0,0,0,0,0,0,0,0,0,0,1.0485,1.0486,1.0588,1.0589,1.059,1.0659,1.066,1.0661,1.0702,1.0702,1.0702,1.0702,1.0772,1.0774,1.0776,0,0,0,0,0,0,0,0,0,0,0,0,0,1.054,1.0487,1.0588,1.0619,1.0622,1.0659,1.066,1.0661,1.0702,1.0702,1.0702,1.0702,1.0771,1.0774,1.0776,1.0787,0,0,1.0784,1.0785,0,0,0,0,0,0,0,0,1.0537,1.0544,1.0613,1.0617,1.0621,1.0672,1.0649,1.0703,1.0702,1.0671,1.0702,1.0702,1.0739,1.0744,1.0756,1.079,1.0793,1.0784,1.0786,1.0787,1.0788,0,0,0,0,0,0,0,1.0533,1.0541,1.0616,1.0614,1.0619,1.0628,1.0636,1.066,1.0703,1.0674,1.0677,1.0685,1.0741,1.0754,1.0758,1.0794,1.0784,1.0786,1.0788,1.0789,1.0839,1.0839,0,0,0,0,0,0,1.0524,1.0537,1.0614,1.0618,1.0578,1.0629,1.0638,1.0655,1.0702,1.071,1.0685,1.0687,1.0749,1.0755,1.0761,1.0776,1.0787,1.0789,1.0791,1.0839,1.0839,1.0839,0,0,0,0,0,0,1.0522,1.0531,1.0611,1.0579,1.059,1.0631,1.0649,1.0656,1.067,1.0711,1.0718,1.0691,1.075,1.0757,1.078,1.0779,1.079,1.0793,1.084,1.0839,1.0839,1.0807,0,0,0,0,0,0,1.0519,1.053,1.0535,1.0579,1.0591,1.063,1.0649,1.0658,1.0674,1.0678,1.0718,1.0725,1.0751,1.0776,1.0783,1.0783,1.0795,1.084,1.084,1.0839,1.0808,1.0805,1.0803,0,0,0,0,0,1.0515,1.0523,1.0535,1.0544,1.0599,1.063,1.0637,1.0667,1.0674,1.0679,1.0705,1.0724,1.0778,1.0778,1.0786,1.0787,1.084,1.084,1.0839,1.0809,1.0806,1.0803,0,0,0,0,0,0,1.0478,1.0529,1.0544,1.0566,1.0593,1.0637,1.0644,1.0662,1.0687,1.0689,1.0724,1.0733,1.0752,1.0772,1.0771,1.0799,1.0811,1.0812,1.0786,1.0783,1.078,1.0775,1.0797,0,0,0,0,0,1.0473,1.0494,1.0538,1.0553,1.0566,1.0603,1.0617,1.0638,1.0667,1.0678,1.0706,1.0733,1.0756,1.0771,1.0794,1.0811,1.082,1.0816,1.0813,1.0811,1.0811,1.082,1.0818,1.0838,1.0838,1.0838,0,0,1.0461,1.0492,1.0504,1.0546,1.057,1.059,1.0612,1.0633,1.0648,1.0681,1.0705,1.0726,1.0758,1.0777,1.0787,1.0795,1.0808,1.081,1.0808,1.081,1.0819,1.0818,1.0816,1.0837,1.0837,1.0837,0,0,1.0451,1.0477,1.0493,1.0516,1.0551,1.0575,1.0579,1.0619,1.0635,1.0659,1.0683,1.0701,1.0741,1.0762,1.0779,1.0775,1.0793,1.0782,1.0768,1.0777,1.0775,1.0774,1.0772,1.0771,1.0782,1.0782,1.0782,0,1.0433,1.0466,1.0498,1.0517,1.0535,1.0566,1.0581,1.0602,1.0642,1.0653,1.0661,1.071,1.0734,1.0758,1.0757,1.077,1.0774,1.0777,1.0773,1.0772,1.0772,1.077,1.0769,1.078,1.0781,1.0781,1.0781,0,1.044,1.0462,1.047,1.051,1.0528,1.0545,1.0578,1.0593,1.0611,1.0634,1.0657,1.0687,1.0717,1.0724,1.0742,1.0751,1.0754,1.0767,1.0779,1.0768,1.0767,1.0766,1.0778,1.0779,1.0779,1.078,0,0,1.041,1.0466,1.0468,1.0486,1.0526,1.0544,1.0561,1.0591,1.0602,1.0629,1.0644,1.0676,1.0688,1.0706,1.0727,1.0734,1.0728,1.0746,1.0747,1.0741,1.0738,1.0727,1.0726,1.074,1.074,1.074,1.0735,0,1.0405,1.0439,1.0468,1.0491,1.0511,1.0541,1.0556,1.0582,1.0603,1.0622,1.0646,1.0668,1.0682,1.0693,1.0702,1.0727,1.0728,1.0728,1.0753,1.0754,1.0744,1.0726,1.0715,1.0708,1.0735,1.0735,1.0735,0,1.0404,1.043,1.0455,1.0493,1.0503,1.0516,1.0544,1.0563,1.0592,1.0607,1.0627,1.0648,1.0667,1.0678,1.0703,1.0703,1.0715,1.0728,1.0729,1.0732,1.0743,1.0727,1.0707,1.0706,1.0734,1.0734,1.0734,0,1.0378,1.0419,1.0439,1.0454,1.0498,1.0507,1.0525,1.0555,1.0571,1.0595,1.0605,1.0632,1.0646,1.0665,1.0693,1.0698,1.0715,1.0728,1.0727,1.0726,1.0729,1.0728,1.0709,1.0737,1.0737,1.0737,1.0737,0,1.037,1.0384,1.0428,1.044,1.0456,1.0489,1.0503,1.0524,1.055,1.0566,1.0593,1.0607,1.0643,1.0661,1.0683,1.07,1.0706,1.0718,1.0724,1.0715,1.0714,1.0723,1.0724,1.0737,1.0737,1.0737,1.0737,0,1.0343,1.0374,1.0398,1.0438,1.0448,1.0458,1.0492,1.0504,1.0526,1.0546,1.0553,1.0588,1.061,1.064,1.0672,1.0686,1.07,1.0709,1.069,1.0693,1.069,1.0689,1.0676,1.0675,1.0704,1.0704,1.0704,0,1.0336,1.0347,1.0388,1.0401,1.0419,1.044,1.0456,1.0487,1.0502,1.0536,1.0544,1.0568,1.059,1.0624,1.0652,1.0676,1.0685,1.0679,1.0689,1.068,1.0684,1.0683,1.0683,1.0676,1.0676,1.0675,1.0675,0,1.0319,1.0333,1.0355,1.0382,1.04,1.0423,1.0447,1.0455,1.0492,1.0507,1.053,1.0547,1.0579,1.0603,1.063,1.0649,1.0667,1.0672,1.0672,1.0664,1.0652,1.0657,1.0683,1.0672,1.0672,1.0672,1.0673,1.0673,1.0301,1.0312,1.0342,1.0366,1.0387,1.0408,1.0421,1.0445,1.0466,1.0495,1.0512,1.0534,1.0562,1.0601,1.0618,1.0636,1.0643,1.0644,1.0644,1.0644,1.0641,1.065,1.0641,1.0641,1.0641,1.0641,1.0641,0,1.0285,1.0305,1.0326,1.0359,1.0376,1.0393,1.042,1.0433,1.0453,1.0477,1.0498,1.0524,1.0547,1.0576,1.06,1.0609,1.0618,1.0614,1.0613,1.0617,1.0633,1.063,1.0606,1.0606,1.0606,1.0606,1.0606,1.0606,1.0278,1.0297,1.0314,1.0344,1.0364,1.0387,1.04,1.0419,1.0439,1.0467,1.0486,1.0505,1.0531,1.0558,1.0579,1.0587,1.0594,1.0587,1.0598,1.0613,1.0616,1.0619,1.0616,1.0589,1.0589,1.058,1.0579,1.0579]},{"header":{"parameterUnit":"m.s-1","parameterCategory":1,"la1":30.2991,"la2":30.254,"lo1":-89.0895,"lo2":-89.0444,"dy":0.0017,"dx":0.0017,"nx":28,"ny":28,"refTime":"2025-09-18T03:00:00:Z","depth":0,"parameterNumber":3,"parameterNumberName":"V-component_of_WINDS"},"data":[0,0,0,0,0,0,0,0,0,0,0,0,0,0,0,0,0,0,0,0,0,0,0,0,0,0,0,0,0,0,0,0,0,0,0,0,0,0,0,0,0,0,0,0,0,0,0,0,0,0,0,0,0,0,0,0,0,0,3.382,3.382,0,3.3809,3.3809,3.3809,3.3744,3.3742,3.3741,3.3739,3.3729,3.373,3.3731,0,0,0,0,0,0,0,0,0,0,0,0,0,3.3785,3.3786,3.382,3.382,3.382,3.3809,3.3809,3.3809,3.3744,3.3742,3.374,3.3739,3.3728,3.373,3.3731,0,0,0,0,0,0,0,0,0,0,0,0,0,3.379,3.3786,3.382,3.3786,3.3783,3.3809,3.3809,3.3809,3.3745,3.3742,3.374,3.3738,3.3728,3.373,3.3731,3.3789,0,0,3.3737,3.3737,0,0,0,0,0,0,0,0,3.379,3.3791,3.3791,3.3788,3.3785,3.3775,3.3792,3.3802,3.3745,3.3759,3.3739,3.3736,3.3746,3.3746,3.3749,3.3789,3.3788,3.3737,3.3738,3.3739,3.3739,0,0,0,0,0,0,0,3.3789,3.3791,3.3815,3.3791,3.3787,3.3771,3.377,3.3794,3.3766,3.3758,3.3753,3.3753,3.3744,3.3748,3.3749,3.3788,3.3737,3.3738,3.3739,3.374,3.3872,3.3875,0,0,0,0,0,0,3.3794,3.3791,3.3816,3.3815,3.3782,3.3774,3.3772,3.3781,3.3765,3.3761,3.3755,3.375,3.3746,3.3747,3.3748,3.3813,3.3739,3.374,3.3741,3.387,3.3873,3.3876,0,0,0,0,0,0,3.3793,3.3797,3.3816,3.3802,3.3803,3.3777,3.3788,3.3782,3.3785,3.3763,3.3758,3.3764,3.3744,3.3746,3.3779,3.3812,3.3741,3.3743,3.3867,3.3871,3.3874,3.3945,0,0,0,0,0,0,3.3792,3.3797,3.3818,3.3803,3.3804,3.3848,3.379,3.3783,3.3789,3.3782,3.377,3.3766,3.3742,3.3777,3.3781,3.3813,3.3744,3.3864,3.3869,3.3873,3.3939,3.395,3.396,0,0,0,0,0,3.3791,3.3839,3.382,3.3823,3.3831,3.385,3.385,3.3822,3.3792,3.3813,3.3798,3.3766,3.3808,3.3781,3.3785,3.3818,3.3862,3.3867,3.3873,3.3935,3.3948,3.396,0,0,0,0,0,0,3.386,3.3837,3.3815,3.3859,3.3857,3.3839,3.3865,3.3837,3.3844,3.3837,3.3803,3.38,3.3839,3.3832,3.3802,3.3872,3.3829,3.3836,3.3875,3.3888,3.3898,3.3898,3.3746,0,0,0,0,0,3.388,3.3897,3.3876,3.3917,3.3917,3.3891,3.3898,3.3877,3.3873,3.3872,3.386,3.3857,3.387,3.3879,3.3889,3.3939,3.3934,3.3964,3.3974,3.3982,3.3988,3.4012,3.4024,3.3894,3.3894,3.3894,0,0,3.3922,3.3911,3.3924,3.393,3.3926,3.3944,3.3891,3.3912,3.3925,3.3875,3.3905,3.3897,3.3892,3.3933,3.3951,3.3929,3.4023,3.3989,3.3996,3.3997,3.4019,3.4031,3.4042,3.3898,3.3897,3.3896,0,0,3.4006,3.4001,3.4033,3.403,3.4024,3.4006,3.4015,3.4,3.3992,3.4022,3.3984,3.4,3.4022,3.402,3.4021,3.4105,3.4075,3.411,3.4163,3.4187,3.4197,3.4206,3.4234,3.4245,3.4116,3.4116,3.4116,0,3.4059,3.4084,3.4054,3.4077,3.4081,3.4036,3.4068,3.4067,3.4065,3.4068,3.4043,3.407,3.4063,3.4103,3.4123,3.4127,3.4134,3.411,3.4198,3.4207,3.4214,3.4241,3.4252,3.412,3.412,3.4119,3.4119,0,3.4149,3.4167,3.4194,3.4192,3.4199,3.4227,3.42,3.4211,3.4189,3.4174,3.4204,3.4195,3.4202,3.4211,3.419,3.4247,3.4233,3.4204,3.416,3.4231,3.4256,3.4266,3.4126,3.4124,3.4123,3.4122,0,0,3.4275,3.4256,3.4266,3.4264,3.4254,3.4267,3.4293,3.4299,3.4308,3.4309,3.4329,3.4349,3.4321,3.4324,3.4302,3.4324,3.4388,3.4291,3.4291,3.4308,3.4449,3.447,3.4482,3.4369,3.4371,3.4373,3.4449,0,3.4355,3.4397,3.437,3.4416,3.4432,3.439,3.4412,3.4409,3.4396,3.4407,3.4393,3.4407,3.4371,3.4371,3.4391,3.4377,3.4416,3.4371,3.4387,3.4388,3.4387,3.4495,3.4517,3.4589,3.4458,3.446,3.4461,0,3.4453,3.4456,3.4504,3.449,3.4495,3.4516,3.4519,3.4531,3.4526,3.4515,3.4517,3.449,3.4514,3.4472,3.4504,3.4474,3.448,3.4474,3.4476,3.4475,3.4428,3.4495,3.4612,3.4622,3.4476,3.4475,3.4474,0,3.4538,3.4555,3.4585,3.4585,3.457,3.4585,3.4579,3.4571,3.4577,3.458,3.4583,3.4589,3.4592,3.4598,3.4573,3.4545,3.4608,3.4564,3.4599,3.46,3.4613,3.4612,3.473,3.462,3.4619,3.4619,3.4619,0,3.4629,3.4659,3.4623,3.4641,3.4674,3.4643,3.4676,3.4666,3.466,3.4676,3.464,3.4656,3.4623,3.4636,3.4617,3.4646,3.4648,3.4639,3.4633,3.4641,3.4642,3.4643,3.4636,3.4622,3.4621,3.4621,3.462,0,3.4728,3.4706,3.4735,3.4718,3.4714,3.4739,3.4724,3.474,3.4725,3.4745,3.4749,3.4725,3.4737,3.4714,3.4724,3.4711,3.4751,3.4738,3.4752,3.4748,3.4783,3.4779,3.4904,3.4918,3.4801,3.4802,3.4803,0,3.4787,3.4809,3.4794,3.4801,3.4797,3.481,3.4815,3.4786,3.4792,3.4788,3.4804,3.4814,3.4819,3.4842,3.4825,3.4833,3.4819,3.4862,3.4819,3.4826,3.4817,3.4815,3.4817,3.487,3.4872,3.4873,3.4874,0,3.4892,3.4879,3.4887,3.4891,3.4898,3.49,3.4899,3.4908,3.4877,3.4886,3.4898,3.4902,3.4912,3.4921,3.4925,3.4919,3.4891,3.4888,3.4896,3.4903,3.4909,3.4904,3.4774,3.4884,3.4883,3.4883,3.4882,3.4882,3.4971,3.4988,3.498,3.499,3.4986,3.4986,3.5,3.4986,3.4996,3.5,3.4983,3.4999,3.4993,3.4994,3.4991,3.5003,3.4984,3.4996,3.4999,3.5002,3.5006,3.4909,3.5004,3.5004,3.5003,3.5003,3.5003,0,3.5073,3.5065,3.5075,3.5074,3.5082,3.5055,3.5053,3.5062,3.5076,3.5072,3.5078,3.5092,3.5101,3.5085,3.5092,3.5104,3.5092,3.5107,3.5105,3.5103,3.5024,3.5016,3.5117,3.5117,3.5117,3.5117,3.5117,3.5117,3.5126,3.5153,3.514,3.5165,3.5157,3.5171,3.5172,3.5172,3.5169,3.5185,3.5192,3.5182,3.5173,3.5179,3.5186,3.5181,3.5185,3.5204,3.5195,3.512,3.5109,3.5099,3.509,3.5205,3.5205,3.5273,3.5273,3.5274]}]]